DM7LA-WX Weather Reports


Display with metric or nautical units.
time (UTC)temp
F
wind
direction
speed
MPH
gust
MPH
rain 1hr
in
rain 24hr
in
rain mn
in
humidity
%
barometer
mb
20260906135801 70 157 0.0 0.0 0.00 2.77 0.00 59 1020.4
20260906125801 66 247 0.0 0.0 0.00 2.77 0.00 63 1020.8
20260906115801 68 292 0.0 0.0 0.00 2.77 0.00 65 1021.4
20260906105801 66 292 0.0 0.0 0.00 2.77 0.00 67 1021.5
20260906095802 64 270 0.0 0.0 0.00 2.77 0.00 70 1022.1
20260906085801 63 270 0.0 0.0 0.00 2.77 0.00 72 1022.0
20260906075801 61 247 0.0 0.0 0.00 2.77 0.00 74 1021.5
20260906065801 58 292 0.0 0.0 0.00 2.77 0.00 76 1020.9
20260906055802 60 315 0.0 0.0 0.00 2.77 0.00 69 1020.9
20260906045802 60 292 0.0 0.0 0.00 2.77 0.00 67 1020.8
20260906035802 60 315 0.0 0.0 0.00 2.78 0.00 67 1020.2
20260906025802 60 315 0.0 0.0 0.00 2.78 0.00 67 1020.4
20260906015802 60 292 0.0 0.0 0.00 2.79 0.00 65 1020.3
20260906005801 60 315 0.0 0.0 0.00 2.79 0.00 65 1019.8
20260905235802 61 315 0.0 0.0 0.00 2.79 0.15 66 1019.5
20260905225801 61 315 0.0 0.0 0.00 2.79 0.15 67 1018.9
20260905215801 61 292 0.0 0.0 0.00 2.79 0.15 63 1018.9
20260905205801 61 337 0.0 0.0 0.00 2.79 0.15 69 1018.4
20260905195801 61 270 0.0 0.0 0.00 2.79 0.15 64 1017.8
20260905185802 61 292 0.0 0.0 0.00 2.79 0.15 72 1016.9
20260905175801 62 315 0.0 0.0 0.00 2.79 0.15 71 1016.6
20260905165802 62 270 0.0 0.0 0.00 2.79 0.15 68 1015.6
20260905155802 64 292 0.0 0.0 0.00 2.79 0.15 69 1015.2
20260905145802 64 315 0.0 0.0 0.00 2.79 0.15 67 1014.2